sat.trackr.live / text

‹ back to catalog

STARLINK-4466

NORAD 53656 · 2022-105J

PAYLOAD ACTIVE UNKNOWN

§ Identity

Operator
Country
US
Launch date
2022-08-31
Launch site
AFWTR
Launch vehicle
Mass (kg)
RCS (m²)

Purposes: comms

External: N2YO · Heavens-Above · Gunter

§ Orbital elements

Epoch: 2026-05-25T03:36:50.594112Z

Period
95.64 min
Inclination
97.4498°
Eccentricity
0.0002039
Mean motion
15.05661327 rev/d
Perigee alt
548.1 km
Apogee alt
550.9 km
Semi-major
6,927.6 km
B*
-5.5928e-5
RAAN
25.1281°
Arg perigee
104.1576°
Mean anomaly
255.9878°
Rev number
20,473

§ Raw data

STARLINK-44661 53656U 22105J   26145.15058558 -.00000866  00000+0 -55928-4 0  99942 53656  97.4498  25.1281 0002039 104.1576 255.9878 15.05661327204731

JSON: /api/v1/satellites/53656 · /tle

For live sub-satellite position, see the globe view (requires WebGL).

§ Visibility from observer

Set your observer location to see the next 7 days of passes ≥ 10°. The values pass through the URL so the page stays shareable.

No JS? Fill the form by hand. The geolocation button needs JavaScript.